QPF
0.00 0.00 0.00 0.01 0.01 0.00 0.00 0.00 0.01 0.01 0.01 0.02 0.02 0.02 0.01 0.01 0.01 0.01 0.01 0.01 0.02 0.02 0.03 0.02 0.01 0.01 0.01 0.01 0.02 0.01 0.01 0.03 0.02 0.01 0.01 0.01 0.01 0.01 0.02 0.02 0.02 0.03 0.03 0.04
0.00 0.00 0.00 0.01 0.01 0.00 0.00 0.00 0.00 0.01 0.01 0.02 0.02 0.02 0.02 0.01 0.01 0.01 0.01 0.01 0.01 0.01 0.02 0.02 0.02 0.02 0.01 0.03 0.03 0.01 0.01 0.02 0.01 0.01 0.01 0.00 0.01 0.01 0.02 0.02 0.02 0.03 0.04 0.05
0.00 0.00 0.00 0.00 0.01 0.01 0.00 0.00 0.00 0.00 0.01 0.01 0.02 0.02 0.01 0.01 0.01 0.01 0.01 0.01 0.02 0.02 0.02 0.01 0.02 0.02 0.01 0.03 0.04 0.02 0.02 0.02 0.02 0.01 0.00 0.00 0.01 0.01 0.02 0.03 0.03 0.04 0.04 0.05
0.00 0.00 0.00 0.00 0.00 0.00 0.00 0.00 0.00 0.01 0.01 0.01 0.02 0.03 0.02 0.01 0.01 0.01 0.01 0.01 0.02 0.02 0.02 0.02 0.01 0.02 0.02 0.04 0.06 0.04 0.03 0.02 0.02 0.01 0.01 0.01 0.01 0.01 0.02 0.03 0.04 0.05 0.06 0.07
0.00 0.00 0.00 0.00 0.00 0.00 0.00 0.00 0.00 0.00 0.00 0.01 0.01 0.02 0.02 0.01 0.01 0.02 0.01 0.01 0.01 0.02 0.02 0.02 0.01 0.01 0.02 0.03 0.05 0.07 0.03 0.02 0.02 0.01 0.01 0.01 0.01 0.01 0.02 0.03 0.02 0.04 0.05 0.07
0.00 0.00 0.00 0.00 0.00 0.00 0.00 0.00 0.00 0.00 0.00 0.00 0.00 0.01 0.01 0.01 0.01 0.02 0.02 0.01 0.01 0.02 0.02 0.02 0.01 0.01 0.01 0.02 0.04 0.05 0.04 0.04 0.03 0.02 0.02 0.01 0.01 0.02 0.03 0.03 0.03 0.04 0.05 0.05
0.00 0.00 0.00 0.00 0.00 0.00 0.00 0.00 0.00 0.00 0.00 0.00 0.00 0.01 0.02 0.02 0.01 0.01 0.02 0.01 0.01 0.02 0.02 0.03 0.02 0.01 0.02 0.02 0.03 0.03 0.04 0.09 0.10 0.05 0.01 0.02 0.02 0.03 0.04 0.03 0.03 0.04 0.04 0.05
0.00 0.00 0.00 0.00 0.00 0.00 0.00 0.00 0.00 0.00 0.00 0.00 0.00 0.01 0.03 0.02 0.01 0.01 0.01 0.02 0.01 0.01 0.01 0.01 0.01 0.01 0.02 0.02 0.02 0.02 0.03 0.03 0.07 0.08 0.03 0.03 0.04 0.04 0.06 0.07 0.05 0.05 0.04 0.04
0.00 0.00 0.00 0.00 0.00 0.00 0.00 0.00 0.00 0.00 0.00 0.00 0.00 0.01 0.01 0.01 0.01 0.01 0.01 0.01 0.01 0.01 0.01 0.01 0.00 0.01 0.01 0.02 0.02 0.02 0.02 0.02 0.02 0.04 0.03 0.04 0.06 0.06 0.06 0.06 0.07 0.07 0.06 0.05
0.00 0.00 0.00 0.00 0.00 0.00 0.00 0.00 0.00 0.00 0.00 0.00 0.00 0.00 0.01 0.01 0.01 0.01 0.00 0.00 0.01 0.01 0.00 0.00 0.00 0.00 0.01 0.01 0.02 0.02 0.02 0.02 0.01 0.02 0.02 0.03 0.05 0.07 0.07 0.08 0.11 0.09 0.07 0.06
0.00 0.00 0.00 0.00 0.00 0.00 0.00 0.00 0.00 0.00 0.00 0.00 0.00 0.00 0.01 0.01 0.01 0.01 0.00 0.00 0.01 0.01 0.00 0.00 0.00 0.00 0.00 0.02 0.03 0.03 0.02 0.01 0.01 0.01 0.02 0.01 0.02 0.04 0.06 0.07 0.08 0.07 0.08 0.07
0.00 0.00 0.00 0.00 0.00 0.00 0.00 0.00 0.00 0.00 0.00 0.00 0.00 0.00 0.00 0.00 0.01 0.01 0.01 0.01 0.01 0.01 0.01 0.00 0.00 0.00 0.01 0.02 0.03 0.03 0.01 0.01 0.01 0.01 0.02 0.02 0.03 0.03 0.02 0.02 0.04 0.06 0.06 0.05
0.00 0.00 0.00 0.00 0.00 0.00 0.00 0.00 0.00 0.00 0.00 0.00 0.00 0.00 0.00 0.00 0.01 0.01 0.01 0.01 0.01 0.01 0.01 0.01 0.01 0.01 0.01 0.01 0.01 0.01 0.00 0.01 0.01 0.01 0.01 0.02 0.02 0.02 0.01 0.02 0.04 0.06 0.08 0.08
0.00 0.00 0.00 0.00 0.00 0.00 0.00 0.00 0.00 0.00 0.00 0.00 0.00 0.00 0.00 0.00 0.00 0.01 0.01 0.01 0.01 0.01 0.01 0.01 0.01 0.01 0.01 0.01 0.01 0.01 0.01 0.00 0.01 0.02 0.02 0.02 0.03 0.02 0.02 0.04 0.06 0.07 0.08 0.09
0.00 0.00 0.00 0.00 0.00 0.00 0.00 0.00 0.00 0.00 0.00 0.00 0.00 0.00 0.00 0.00 0.00 0.00 0.01 0.01 0.01 0.01 0.01 0.00 0.01 0.01 0.01 0.01 0.01 0.01 0.01 0.01 0.01 0.02 0.04 0.02 0.02 0.02 0.03 0.04 0.05 0.07 0.08 0.07
0.00 0.00 0.00 0.00 0.00 0.00 0.00 0.00 0.00 0.00 0.00 0.00 0.00 0.00 0.00 0.00 0.00 0.00 0.01 0.01 0.00 0.00 0.00 0.00 0.01 0.01 0.01 0.01 0.01 0.01 0.02 0.01 0.01 0.03 0.05 0.03 0.02 0.03 0.03 0.04 0.05 0.05 0.05 0.05
0.00 0.00 0.00 0.00 0.00 0.00 0.00 0.00 0.00 0.00 0.00 0.00 0.00 0.00 0.00 0.00 0.00 0.00 0.01 0.01 0.01 0.00 0.00 0.01 0.01 0.00 0.01 0.01 0.00 0.00 0.01 0.02 0.02 0.05 0.06 0.04 0.03 0.03 0.03 0.02 0.02 0.03 0.05 0.06
0.00 0.00 0.00 0.00 0.00 0.00 0.00 0.00 0.00 0.00 0.00 0.00 0.00 0.00 0.00 0.00 0.00 0.01 0.01 0.01 0.01 0.01 0.01 0.01 0.00 0.01 0.01 0.01 0.01 0.01 0.02 0.03 0.03 0.07 0.05 0.03 0.03 0.03 0.02 0.02 0.02 0.03 0.04 0.06
0.00 0.00 0.00 0.00 0.00 0.00 0.00 0.00 0.00 0.00 0.00 0.00 0.00 0.00 0.00 0.00 0.00 0.01 0.01 0.02 0.02 0.01 0.01 0.01 0.01 0.01 0.01 0.01 0.01 0.01 0.01 0.02 0.03 0.03 0.03 0.05 0.06 0.05 0.04 0.02 0.03 0.03 0.03 0.03
0.00 0.00 0.00 0.00 0.00 0.00 0.00 0.00 0.00 0.00 0.00 0.00 0.00 0.00 0.00 0.00 0.01 0.01 0.01 0.01 0.01 0.01 0.01 0.01 0.01 0.01 0.01 0.01 0.01 0.01 0.01 0.01 0.02 0.03 0.04 0.07 0.06 0.03 0.02 0.02 0.03 0.02 0.01 0.01
0.00 0.00 0.00 0.00 0.00 0.00 0.00 0.00 0.00 0.00 0.00 0.00 0.00 0.00 0.00 0.01 0.01 0.02 0.01 0.01 0.01 0.00 0.00 0.01 0.00 0.01 0.01 0.01 0.01 0.01 0.01 0.02 0.05 0.06 0.06 0.07 0.05 0.02 0.01 0.02 0.02 0.01 0.01 0.01
0.00 0.00 0.00 0.00 0.00 0.00 0.00 0.00 0.00 0.00 0.00 0.00 0.00 0.01 0.01 0.02 0.02 0.01 0.01 0.01 0.00 0.00 0.00 0.01 0.01 0.01 0.01 0.01 0.01 0.01 0.02 0.03 0.04 0.05 0.12 0.08 0.02 0.01 0.01 0.01 0.01 0.02 0.01 0.01
0.00 0.00 0.00 0.00 0.00 0.00 0.00 0.00 0.00 0.00 0.00 0.00 0.00 0.01 0.01 0.01 0.02 0.01 0.01 0.01 0.01 0.01 0.01 0.01 0.02 0.02 0.02 0.02 0.02 0.01 0.02 0.02 0.03 0.04 0.08 0.03 0.02 0.02 0.02 0.02 0.02 0.02 0.02 0.02
0.00 0.00 0.00 0.00 0.00 0.00 0.00 0.00 0.00 0.00 0.00 0.00 0.00 0.01 0.01 0.01 0.01 0.01 0.02 0.01 0.01 0.01 0.01 0.02 0.02 0.02 0.02 0.02 0.01 0.01 0.01 0.01 0.01 0.02 0.03 0.03 0.03 0.03 0.02 0.03 0.03 0.03 0.02 0.02
0.00 0.00 0.00 0.00 0.00 0.00 0.00 0.00 0.00 0.00 0.00 0.00 0.00 0.01 0.01 0.01 0.01 0.02 0.02 0.01 0.01 0.01 0.01 0.02 0.02 0.02 0.02 0.01 0.01 0.01 0.01 0.01 0.00 0.01 0.01 0.02 0.02 0.02 0.02 0.03 0.03 0.04 0.04 0.04
0.00 0.00 0.00 0.00 0.00 0.00 0.00 0.00 0.00 0.00 0.00 0.01 0.01 0.01 0.01 0.02 0.02 0.01 0.02 0.02 0.01 0.01 0.01 0.01 0.02 0.01 0.01 0.01 0.02 0.02 0.02 0.02 0.01 0.01 0.01 0.01 0.01 0.01 0.02 0.02 0.03 0.04 0.05 0.06
MSLP
1009.69 1010.53 1011.18 1011.63 1011.92 1012.08 1012.18 1012.24 1012.29 1012.33 1012.34 1012.27 1012.11 1011.84 1011.46 1011.01 1010.54 1010.10 1009.73 1009.46 1009.30 1009.23 1009.22 1009.24 1009.24 1009.22 1009.18 1009.13 1009.10 1009.12 1009.21 1009.36 1009.57 1009.79 1009.99 1010.13 1010.17 1010.11 1009.96 1009.75 1009.52 1009.33 1009.20 1009.17
1009.94 1010.67 1011.23 1011.62 1011.90 1012.11 1012.31 1012.51 1012.72 1012.91 1013.02 1013.00 1012.83 1012.48 1011.97 1011.35 1010.71 1010.10 1009.60 1009.24 1009.04 1008.96 1008.98 1009.04 1009.09 1009.11 1009.09 1009.07 1009.05 1009.09 1009.21 1009.40 1009.66 1009.95 1010.22 1010.41 1010.51 1010.48 1010.35 1010.13 1009.89 1009.66 1009.50 1009.44
1010.09 1010.69 1011.14 1011.47 1011.74 1012.02 1012.34 1012.71 1013.10 1013.46 1013.69 1013.74 1013.55 1013.12 1012.47 1011.68 1010.83 1010.04 1009.38 1008.91 1008.64 1008.54 1008.57 1008.67 1008.77 1008.84 1008.88 1008.89 1008.91 1008.98 1009.13 1009.36 1009.67 1010.01 1010.34 1010.60 1010.75 1010.78 1010.68 1010.49 1010.26 1010.03 1009.86 1009.78
1010.27 1010.71 1011.03 1011.29 1011.57 1011.91 1012.36 1012.90 1013.48 1014.01 1014.38 1014.51 1014.33 1013.83 1013.05 1012.08 1011.04 1010.05 1009.21 1008.59 1008.22 1008.07 1008.09 1008.20 1008.35 1008.47 1008.56 1008.62 1008.67 1008.77 1008.94 1009.20 1009.54 1009.92 1010.29 1010.60 1010.81 1010.90 1010.85 1010.71 1010.52 1010.32 1010.15 1010.07
1010.61 1010.87 1011.05 1011.22 1011.48 1011.88 1012.45 1013.15 1013.91 1014.62 1015.13 1015.35 1015.20 1014.67 1013.79 1012.67 1011.44 1010.26 1009.24 1008.46 1007.95 1007.72 1007.69 1007.79 1007.94 1008.09 1008.21 1008.30 1008.38 1008.49 1008.67 1008.93 1009.27 1009.65 1010.04 1010.38 1010.63 1010.77 1010.78 1010.70 1010.56 1010.41 1010.28 1010.20
1011.19 1011.26 1011.28 1011.36 1011.59 1012.02 1012.68 1013.51 1014.44 1015.30 1015.96 1016.29 1016.20 1015.67 1014.74 1013.51 1012.15 1010.80 1009.60 1008.66 1008.01 1007.65 1007.53 1007.57 1007.69 1007.83 1007.94 1008.03 1008.10 1008.20 1008.35 1008.57 1008.87 1009.23 1009.59 1009.93 1010.19 1010.36 1010.42 1010.40 1010.32 1010.23 1010.15 1010.11
1012.04 1011.92 1011.79 1011.77 1011.94 1012.38 1013.08 1014.02 1015.07 1016.07 1016.86 1017.31 1017.30 1016.82 1015.90 1014.63 1013.19 1011.72 1010.39 1009.29 1008.49 1007.99 1007.74 1007.68 1007.72 1007.80 1007.86 1007.90 1007.92 1007.96 1008.04 1008.19 1008.42 1008.69 1009.00 1009.29 1009.53 1009.70 1009.80 1009.82 1009.80 1009.76 1009.74 1009.76
1013.09 1012.81 1012.56 1012.43 1012.54 1012.96 1013.68 1014.67 1015.79 1016.89 1017.80 1018.35 1018.45 1018.05 1017.19 1015.95 1014.50 1012.99 1011.57 1010.36 1009.42 1008.78 1008.39 1008.19 1008.11 1008.07 1008.04 1007.98 1007.92 1007.86 1007.84 1007.88 1007.98 1008.15 1008.35 1008.56 1008.75 1008.89 1008.98 1009.03 1009.05 1009.07 1009.11 1009.18
1014.23 1013.85 1013.50 1013.30 1013.35 1013.73 1014.44 1015.43 1016.58 1017.73 1018.71 1019.35 1019.55 1019.27 1018.51 1017.36 1015.96 1014.46 1013.03 1011.75 1010.72 1009.95 1009.42 1009.08 1008.85 1008.68 1008.51 1008.33 1008.14 1007.96 1007.81 1007.71 1007.68 1007.70 1007.78 1007.87 1007.97 1008.05 1008.11 1008.15 1008.19 1008.24 1008.33 1008.45
1015.32 1014.92 1014.53 1014.29 1014.31 1014.64 1015.31 1016.26 1017.39 1018.53 1019.53 1020.22 1020.51 1020.33 1019.70 1018.67 1017.38 1015.97 1014.58 1013.30 1012.22 1011.36 1010.72 1010.24 1009.87 1009.55 1009.25 1008.94 1008.61 1008.30 1008.01 1007.77 1007.58 1007.46 1007.39 1007.36 1007.34 1007.34 1007.33 1007.34 1007.36 1007.42 1007.52 1007.67
1016.26 1015.90 1015.55 1015.33 1015.34 1015.64 1016.26 1017.14 1018.18 1019.26 1020.21 1020.90 1021.23 1021.13 1020.62 1019.73 1018.59 1017.30 1016.00 1014.78 1013.71 1012.81 1012.09 1011.51 1011.03 1010.59 1010.16 1009.73 1009.28 1008.85 1008.44 1008.06 1007.75 1007.49 1007.28 1007.11 1006.98 1006.86 1006.77 1006.71 1006.68 1006.70 1006.79 1006.93
1017.00 1016.74 1016.50 1016.35 1016.39 1016.68 1017.24 1018.02 1018.94 1019.89 1020.74 1021.37 1021.67 1021.61 1021.19 1020.43 1019.43 1018.30 1017.12 1016.00 1014.98 1014.10 1013.35 1012.71 1012.15 1011.63 1011.11 1010.59 1010.06 1009.54 1009.03 1008.56 1008.14 1007.76 1007.44 1007.15 1006.89 1006.67 1006.48 1006.32 1006.22 1006.18 1006.21 1006.31
1017.56 1017.46 1017.37 1017.34 1017.44 1017.74 1018.23 1018.90 1019.67 1020.45 1021.13 1021.63 1021.86 1021.78 1021.39 1020.73 1019.86 1018.87 1017.83 1016.82 1015.89 1015.06 1014.33 1013.69 1013.10 1012.53 1011.97 1011.40 1010.83 1010.26 1009.70 1009.17 1008.67 1008.21 1007.80 1007.41 1007.05 1006.73 1006.43 1006.18 1005.98 1005.85 1005.80 1005.83
1018.02 1018.11 1018.19 1018.29 1018.48 1018.79 1019.22 1019.76 1020.35 1020.93 1021.41 1021.73 1021.83 1021.68 1021.28 1020.67 1019.89 1019.02 1018.11 1017.23 1016.40 1015.64 1014.96 1014.34 1013.76 1013.19 1012.63 1012.05 1011.47 1010.88 1010.31 1009.75 1009.22 1008.71 1008.24 1007.78 1007.34 1006.93 1006.54 1006.19 1005.90 1005.68 1005.53 1005.47
1018.49 1018.77 1019.00 1019.24 1019.50 1019.82 1020.18 1020.58 1020.99 1021.35 1021.60 1021.71 1021.65 1021.39 1020.94 1020.34 1019.62 1018.84 1018.04 1017.26 1016.53 1015.85 1015.23 1014.66 1014.10 1013.56 1013.01 1012.45 1011.88 1011.31 1010.74 1010.19 1009.65 1009.12 1008.61 1008.11 1007.62 1007.14 1006.68 1006.26 1005.88 1005.57 1005.34 1005.19
1019.07 1019.48 1019.85 1020.18 1020.49 1020.79 1021.07 1021.34 1021.55 1021.69 1021.73 1021.63 1021.39 1021.01 1020.49 1019.87 1019.17 1018.45 1017.72 1017.03 1016.38 1015.77 1015.21 1014.67 1014.15 1013.63 1013.11 1012.57 1012.02 1011.47 1010.92 1010.38 1009.84 1009.31 1008.78 1008.26 1007.73 1007.22 1006.71 1006.24 1005.80 1005.43 1005.13 1004.91
1019.81 1020.30 1020.73 1021.09 1021.40 1021.66 1021.85 1021.97 1022.01 1021.95 1021.79 1021.51 1021.11 1020.61 1020.02 1019.37 1018.68 1017.99 1017.32 1016.68 1016.08 1015.51 1014.98 1014.48 1013.97 1013.47 1012.95 1012.43 1011.89 1011.36 1010.82 1010.28 1009.75 1009.21 1008.68 1008.14 1007.60 1007.07 1006.54 1006.04 1005.58 1005.18 1004.84 1004.58
1020.70 1021.19 1021.60 1021.94 1022.19 1022.36 1022.44 1022.42 1022.31 1022.08 1021.76 1021.34 1020.83 1020.24 1019.60 1018.93 1018.24 1017.57 1016.93 1016.32 1015.74 1015.19 1014.67 1014.15 1013.64 1013.13 1012.60 1012.07 1011.53 1010.99 1010.44 1009.90 1009.36 1008.82 1008.28 1007.73 1007.19 1006.65 1006.12 1005.62 1005.16 1004.76 1004.42 1004.15
1021.66 1022.08 1022.42 1022.66 1022.81 1022.86 1022.81 1022.66 1022.41 1022.07 1021.63 1021.12 1020.55 1019.92 1019.26 1018.58 1017.91 1017.25 1016.62 1016.02 1015.43 1014.88 1014.33 1013.79 1013.24 1012.69 1012.14 1011.57 1011.01 1010.44 1009.88 1009.32 1008.76 1008.20 1007.65 1007.09 1006.54 1006.00 1005.48 1005.00 1004.56 1004.18 1003.86 1003.61
1022.59 1022.90 1023.10 1023.21 1023.22 1023.13 1022.95 1022.68 1022.33 1021.90 1021.41 1020.85 1020.26 1019.63 1018.98 1018.32 1017.67 1017.02 1016.40 1015.78 1015.18 1014.59 1014.00 1013.41 1012.82 1012.22 1011.62 1011.01 1010.41 1009.81 1009.21 1008.62 1008.04 1007.46 1006.88 1006.31 1005.75 1005.22 1004.71 1004.24 1003.82 1003.47 1003.19 1002.97
1023.39 1023.56 1023.61 1023.56 1023.41 1023.19 1022.88 1022.51 1022.08 1021.61 1021.09 1020.54 1019.96 1019.36 1018.74 1018.11 1017.48 1016.85 1016.21 1015.58 1014.94 1014.31 1013.67 1013.02 1012.38 1011.72 1011.07 1010.43 1009.78 1009.15 1008.52 1007.90 1007.29 1006.69 1006.09 1005.50 1004.94 1004.40 1003.89 1003.44 1003.04 1002.71 1002.46 1002.27
1023.98 1024.01 1023.92 1023.72 1023.43 1023.08 1022.67 1022.22 1021.74 1021.25 1020.73 1020.20 1019.65 1019.08 1018.50 1017.90 1017.29 1016.65 1016.01 1015.34 1014.67 1013.99 1013.29 1012.60 1011.90 1011.21 1010.52 1009.84 1009.17 1008.51 1007.86 1007.22 1006.59 1005.97 1005.35 1004.75 1004.17 1003.62 1003.12 1002.67 1002.27 1001.95 1001.70 1001.52
1024.33 1024.25 1024.04 1023.72 1023.32 1022.87 1022.39 1021.88 1021.38 1020.87 1020.37 1019.86 1019.34 1018.80 1018.25 1017.66 1017.04 1016.39 1015.72 1015.02 1014.31 1013.57 1012.84 1012.10 1011.37 1010.65 1009.94 1009.24 1008.57 1007.90 1007.25 1006.60 1005.96 1005.33 1004.71 1004.10 1003.51 1002.95 1002.43 1001.97 1001.57 1001.23 1000.97 1000.77
1024.46 1024.30 1024.01 1023.62 1023.15 1022.64 1022.11 1021.58 1021.06 1020.55 1020.06 1019.56 1019.05 1018.52 1017.95 1017.35 1016.72 1016.04 1015.32 1014.58 1013.82 1013.05 1012.28 1011.52 1010.77 1010.04 1009.33 1008.64 1007.96 1007.31 1006.66 1006.02 1005.39 1004.76 1004.14 1003.53 1002.93 1002.36 1001.83 1001.35 1000.93 1000.57 1000.27 1000.03
1024.40 1024.20 1023.88 1023.45 1022.95 1022.42 1021.88 1021.34 1020.82 1020.31 1019.81 1019.30 1018.78 1018.22 1017.63 1016.99 1016.31 1015.59 1014.83 1014.04 1013.24 1012.44 1011.65 1010.87 1010.12 1009.39 1008.69 1008.01 1007.35 1006.71 1006.08 1005.45 1004.83 1004.21 1003.60 1002.99 1002.40 1001.83 1001.29 1000.79 1000.34 999.94 999.60 999.32
1024.21 1024.01 1023.68 1023.26 1022.77 1022.25 1021.72 1021.19 1020.67 1020.16 1019.64 1019.10 1018.54 1017.94 1017.30 1016.60 1015.86 1015.08 1014.27 1013.45 1012.62 1011.79 1010.99 1010.21 1009.45 1008.73 1008.04 1007.37 1006.72 1006.09 1005.47 1004.85 1004.24 1003.63 1003.03 1002.43 1001.85 1001.28 1000.74 1000.23 999.77 999.34 998.97 998.64
Thickness
5815 5799 5789 5795 5799 5799 5793 5784 5778 5785 5798 5791 5783 5783 5788 5792 5791 5788 5787 5787 5787 5788 5791 5792 5791 5789 5787 5784 5783 5781 5779 5777 5776 5773 5770 5768 5767 5767 5767 5767 5766 5765 5764 5763
5799 5794 5809 5814 5809 5802 5794 5784 5781 5788 5798 5791 5781 5781 5789 5792 5791 5791 5790 5788 5789 5789 5789 5790 5790 5788 5786 5785 5783 5782 5780 5778 5776 5774 5772 5770 5768 5768 5767 5767 5766 5765 5764 5763
5796 5805 5819 5814 5805 5797 5792 5787 5785 5784 5790 5788 5781 5773 5781 5790 5795 5795 5795 5794 5793 5792 5790 5790 5789 5788 5787 5785 5784 5783 5781 5779 5777 5775 5772 5770 5768 5767 5766 5765 5764 5764 5763 5762
5803 5814 5816 5809 5804 5800 5787 5802 5797 5789 5775 5763 5771 5751 5773 5782 5786 5791 5793 5794 5794 5794 5793 5792 5791 5789 5788 5787 5786 5784 5782 5779 5777 5775 5772 5768 5765 5762 5763 5763 5763 5763 5763 5762
5801 5813 5811 5805 5809 5809 5799 5807 5797 5786 5771 5760 5762 5753 5762 5778 5778 5787 5793 5796 5796 5797 5796 5794 5793 5792 5791 5790 5788 5785 5782 5780 5778 5775 5772 5769 5766 5764 5763 5763 5762 5761 5761 5761
5809 5821 5820 5816 5818 5817 5808 5795 5783 5770 5760 5746 5756 5751 5756 5770 5781 5789 5796 5799 5799 5799 5798 5797 5796 5794 5792 5791 5788 5785 5782 5780 5778 5776 5773 5769 5766 5764 5762 5761 5760 5759 5759 5759
5796 5808 5819 5822 5807 5805 5799 5773 5748 5744 5734 5739 5758 5754 5761 5787 5795 5797 5797 5799 5801 5800 5798 5796 5794 5792 5790 5789 5788 5785 5782 5779 5778 5775 5773 5770 5767 5765 5762 5761 5760 5758 5757 5757
5776 5778 5806 5815 5808 5795 5790 5778 5750 5737 5733 5740 5755 5752 5773 5796 5802 5804 5803 5802 5801 5800 5798 5796 5795 5793 5791 5789 5787 5785 5782 5779 5777 5775 5773 5770 5768 5765 5763 5762 5761 5759 5757 5756
5774 5778 5809 5816 5817 5806 5785 5775 5777 5752 5744 5737 5745 5760 5781 5796 5796 5798 5798 5798 5797 5798 5797 5796 5795 5793 5791 5789 5787 5784 5781 5778 5776 5775 5773 5770 5768 5766 5764 5763 5761 5759 5758 5757
5790 5780 5798 5808 5811 5803 5796 5780 5761 5747 5733 5729 5743 5751 5760 5780 5786 5789 5791 5792 5794 5796 5796 5795 5794 5793 5791 5789 5787 5784 5781 5778 5776 5774 5772 5771 5768 5766 5764 5762 5760 5759 5758 5756
5794 5778 5784 5793 5789 5784 5782 5773 5758 5744 5743 5730 5728 5747 5781 5782 5787 5788 5789 5791 5792 5793 5794 5793 5792 5792 5789 5787 5784 5781 5778 5777 5774 5772 5770 5768 5767 5765 5763 5761 5759 5757 5756 5755
5785 5769 5761 5777 5792 5797 5790 5776 5762 5750 5740 5734 5732 5748 5791 5789 5790 5790 5789 5790 5791 5791 5792 5791 5789 5787 5785 5782 5780 5778 5776 5774 5772 5770 5768 5766 5764 5762 5760 5759 5757 5756 5754 5753
5782 5763 5747 5753 5765 5780 5778 5773 5766 5754 5738 5728 5730 5751 5786 5786 5786 5788 5788 5788 5787 5787 5786 5785 5783 5781 5779 5778 5777 5775 5773 5771 5769 5767 5764 5762 5760 5758 5757 5755 5754 5753 5751 5749
5786 5757 5750 5743 5751 5765 5768 5768 5764 5756 5739 5733 5740 5755 5771 5777 5778 5781 5784 5784 5784 5783 5781 5779 5776 5775 5775 5773 5773 5772 5770 5768 5766 5763 5760 5757 5756 5755 5753 5752 5750 5749 5747 5745
5777 5754 5757 5760 5767 5769 5769 5767 5764 5760 5754 5746 5752 5755 5766 5773 5776 5778 5780 5780 5779 5778 5776 5774 5772 5771 5770 5769 5768 5768 5766 5765 5762 5759 5756 5754 5753 5752 5750 5748 5746 5745 5743 5742
5762 5751 5753 5754 5762 5763 5760 5764 5763 5761 5759 5755 5756 5757 5771 5774 5775 5774 5774 5774 5772 5772 5771 5770 5769 5767 5765 5765 5763 5762 5761 5760 5757 5754 5752 5750 5748 5746 5745 5743 5741 5740 5738 5737
5747 5744 5736 5733 5748 5752 5741 5755 5757 5757 5758 5756 5750 5759 5766 5766 5767 5767 5767 5768 5767 5767 5766 5764 5763 5762 5761 5760 5759 5756 5755 5754 5751 5749 5747 5745 5743 5741 5740 5738 5736 5734 5733 5732
5739 5731 5721 5720 5732 5720 5742 5763 5761 5755 5755 5757 5758 5760 5761 5762 5762 5762 5763 5761 5760 5761 5760 5760 5758 5757 5757 5755 5753 5751 5749 5747 5744 5742 5740 5739 5737 5736 5734 5733 5731 5730 5728 5726
5738 5729 5713 5706 5709 5718 5740 5754 5754 5747 5746 5755 5753 5754 5755 5757 5757 5753 5757 5757 5755 5756 5755 5754 5753 5752 5750 5749 5747 5744 5741 5738 5736 5735 5733 5732 5731 5729 5728 5727 5726 5725 5723 5721
5726 5725 5712 5702 5705 5704 5730 5753 5758 5749 5736 5752 5751 5748 5747 5748 5736 5740 5750 5750 5750 5749 5749 5747 5746 5744 5742 5741 5738 5735 5732 5730 5729 5728 5727 5725 5724 5723 5722 5721 5720 5718 5717 5716
5710 5706 5702 5698 5699 5708 5735 5747 5749 5724 5730 5748 5747 5744 5741 5738 5737 5740 5743 5742 5742 5741 5741 5739 5738 5735 5733 5732 5729 5726 5723 5721 5722 5721 5720 5719 5717 5716 5715 5714 5713 5711 5709 5708
5701 5696 5692 5689 5692 5702 5735 5737 5730 5730 5741 5742 5740 5739 5736 5734 5734 5734 5733 5732 5733 5732 5732 5730 5728 5726 5724 5723 5720 5717 5715 5715 5714 5713 5712 5712 5710 5709 5708 5706 5704 5703 5701 5700
5697 5701 5697 5698 5703 5718 5725 5729 5734 5734 5733 5734 5733 5733 5731 5727 5725 5724 5722 5722 5722 5722 5722 5721 5718 5716 5715 5714 5712 5709 5708 5707 5705 5703 5702 5702 5702 5700 5699 5697 5695 5694 5693 5692
5697 5698 5695 5696 5706 5713 5719 5723 5727 5729 5729 5730 5729 5727 5725 5720 5717 5714 5712 5711 5711 5712 5712 5711 5709 5707 5705 5706 5705 5702 5701 5699 5697 5695 5694 5693 5692 5691 5690 5688 5687 5685 5684 5683
5693 5692 5688 5690 5701 5707 5714 5716 5720 5722 5723 5722 5721 5719 5716 5713 5708 5706 5703 5702 5702 5702 5702 5701 5700 5698 5697 5696 5696 5695 5694 5691 5689 5687 5686 5685 5683 5682 5680 5679 5678 5677 5677 5676
5685 5686 5685 5687 5697 5697 5702 5710 5713 5712 5711 5711 5710 5708 5706 5705 5701 5698 5695 5694 5694 5694 5694 5692 5690 5689 5688 5688 5687 5686 5685 5683 5681 5679 5678 5677 5675 5674 5673 5671 5670 5670 5669 5670